Location: *
(51.1248°S, 108.4023°W)
Time: 05:17:00
(UTC+00:00)

Cosmos 1707 Rocket - Pass Details

Date: 15 June 2021
Orbit: 604 x 632 km, 82.5° (Epoch: 31 July)

Event Time Altitude Azimuth Distance (km) Brightness Sun altitude
Rises 23:46:07 0° 189° (S) 2,929 6.8 -5.3°
Reaches altitude 10° 23:48:23 10° 185° (S) 2,020 6.0 -5.6°
Maximum altitude 23:52:51 65° 103° (ESE) 699 3.6 -6.2°
Drops below altitude 10° 23:57:17 10° 20° (NNE) 2,010 6.3 -6.8°
Sets 23:59:32 0° 17° (NNE) 2,914 7.2 -7.1°
